Theta_e
325 325 328 329 329 330 333 335 338 342 346 348 345 348 349 348 349 348 348 348 348 347 348 349 349 349 348 348 347 344 343 344 345 346 345 345 345 344 345 346 344 339 344 345
322 325 325 327 327 330 331 335 336 339 345 344 346 345 346 347 347 348 348 348 347 347 347 348 348 349 349 348 348 346 343 342 345 346 346 345 346 347 346 347 342 345 345 346
322 324 324 327 329 330 328 332 336 336 345 343 346 343 345 342 342 346 347 346 346 347 346 347 347 347 348 346 346 345 343 343 344 346 347 347 347 348 337 335 343 341 342 337
320 320 323 324 326 326 327 329 333 339 341 340 339 342 341 341 342 339 342 346 346 346 346 346 347 346 347 346 346 344 344 342 344 346 347 348 348 345 338 338 339 339 343 337
317 324 324 325 326 325 326 328 329 335 339 341 343 342 338 338 340 342 339 341 345 346 347 347 347 347 347 346 346 346 344 344 343 344 347 348 345 344 340 337 337 339 340 339
317 319 321 323 324 325 325 325 322 327 331 340 337 340 337 337 339 339 340 340 341 345 347 347 348 347 347 346 346 347 345 344 342 346 347 348 345 343 341 340 341 344 341 341
316 317 317 321 320 320 320 318 319 322 339 340 332 341 337 335 334 337 337 339 340 341 346 347 347 347 347 347 346 347 346 345 345 347 348 349 347 346 344 343 344 344 343 342
314 317 317 318 318 318 318 318 318 324 326 328 333 336 335 333 335 337 339 340 340 341 344 346 347 347 347 347 346 347 345 347 348 349 349 350 348 349 345 344 344 345 342 342
312 315 315 317 319 318 320 321 318 320 318 326 333 332 329 332 335 338 339 341 342 342 343 343 347 347 347 347 347 347 345 347 349 350 349 348 351 348 347 345 343 342 343 345
314 315 316 318 319 318 318 316 318 314 325 326 322 329 329 330 331 337 339 339 341 343 344 344 345 346 347 347 348 347 346 346 347 349 348 351 350 348 347 342 343 344 344 344
313 312 315 318 315 316 316 317 314 314 316 320 321 322 324 330 326 333 337 340 341 341 343 343 345 346 347 347 347 347 346 347 347 347 351 352 349 347 346 345 345 345 343 340
317 309 313 315 314 315 314 315 314 313 316 314 316 320 321 327 327 332 335 339 341 341 341 341 341 346 347 347 347 347 347 348 348 352 353 351 348 347 345 344 343 341 335 328
324 316 312 316 315 316 317 314 312 310 311 315 318 319 318 329 334 334 335 337 340 341 341 341 341 345 348 347 347 348 348 352 353 354 351 349 346 343 343 341 336 331 323 316
320 309 313 314 316 313 315 318 314 314 315 315 316 319 321 320 332 334 336 338 339 341 341 341 344 347 348 347 348 347 350 354 356 352 349 344 343 341 339 334 329 322 314 312
320 323 319 316 318 316 317 319 316 316 316 319 319 317 320 321 320 329 336 337 338 339 341 342 344 346 348 347 347 347 349 356 353 350 346 342 342 341 335 330 324 316 312 309
318 325 324 328 322 321 318 317 316 316 317 317 318 319 317 328 333 334 337 339 341 341 344 345 346 347 349 348 347 348 356 353 350 348 345 343 342 336 333 328 322 313 309 305
321 322 324 329 325 320 319 322 319 337 337 329 330 328 330 337 338 334 336 340 343 344 346 348 348 348 350 348 349 356 354 349 348 346 344 342 340 334 331 327 317 310 306 305
321 322 321 328 324 326 319 328 328 338 338 337 337 336 336 336 339 338 333 337 341 347 348 349 349 350 350 351 356 355 348 339 341 344 343 342 336 333 330 324 313 308 307 306
318 323 324 328 325 324 330 332 334 336 335 336 336 336 336 338 338 333 337 337 340 346 348 350 350 349 351 354 356 354 347 344 339 345 343 339 334 334 329 317 310 308 307 308
321 322 325 324 330 329 325 331 331 331 336 333 334 335 336 338 341 329 339 343 339 345 347 350 352 350 350 352 354 351 344 336 337 344 341 337 334 334 325 314 309 308 307 308
327 325 327 326 330 326 327 330 332 335 332 333 335 335 337 339 341 343 343 344 342 345 349 352 352 352 350 351 354 349 344 342 344 343 339 337 334 328 317 311 308 308 311 310
329 332 330 326 327 330 329 331 333 331 333 332 334 333 334 344 347 348 344 345 347 350 352 351 352 352 351 352 353 349 346 345 343 341 338 337 332 321 314 310 309 310 315 317
332 329 331 330 329 325 331 331 332 333 332 332 332 332 332 341 347 349 347 349 351 351 351 352 353 352 349 351 351 348 346 344 341 339 337 335 326 317 312 309 310 313 317 317
323 328 329 328 328 328 330 330 331 333 331 331 332 332 332 331 346 349 349 350 349 348 349 349 348 347 348 350 346 345 345 342 340 339 336 329 321 314 311 310 311 313 317 317
319 327 328 326 324 325 328 330 331 330 332 330 331 332 331 331 344 349 349 349 349 347 347 348 347 344 344 346 339 344 343 340 340 338 334 325 318 312 310 311 310 315 316 318
317 324 324 321 318 324 326 325 321 320 329 330 330 332 332 335 340 349 349 349 350 351 350 344 338 334 336 344 343 343 342 341 339 337 331 323 316 313 311 311 312 314 318 319
Wind_Speed
2 5 5 10 6 4 3 2 5 3 5 5 6 5 10 23 21 19 22 27 29 31 29 27 26 25 24 23 22 19 19 19 18 14 10 6 4 4 3 6 7 5 5 4
5 5 9 1 4 3 3 4 4 4 8 5 6 10 6 12 24 28 25 28 33 32 31 31 28 27 27 25 24 23 21 18 20 17 10 6 6 5 1 3 5 5 4 6
6 4 7 5 3 3 4 4 3 6 2 2 2 5 4 7 11 20 26 30 32 32 31 32 30 30 28 21 24 23 24 23 20 18 15 12 10 11 10 9 7 7 4 5
4 3 7 4 4 6 6 7 6 4 3 5 2 6 5 7 10 12 25 32 34 34 32 31 32 30 32 24 18 16 22 23 23 22 16 16 11 12 12 13 10 10 8 6
7 1 3 4 7 7 6 3 2 4 3 2 2 2 9 1 6 17 23 33 38 39 36 35 34 32 31 29 25 19 22 21 26 24 17 16 10 9 12 14 14 11 11 9
6 2 2 4 2 5 1 3 6 5 4 0 8 7 8 5 9 5 19 30 36 39 38 36 33 33 33 32 27 23 22 24 26 27 20 16 13 8 11 10 11 14 13 12
5 5 3 5 3 2 5 6 3 3 1 6 2 4 9 11 8 8 7 22 35 38 36 34 34 36 37 32 28 26 24 23 26 27 24 20 14 11 11 10 12 10 12 13
3 7 7 4 8 8 6 8 6 5 5 5 2 6 9 8 10 11 10 15 26 32 35 34 34 39 38 33 31 29 25 24 24 25 23 20 16 15 14 12 12 13 14 13
5 7 4 5 4 8 3 3 4 6 2 2 4 7 9 6 9 6 7 11 21 28 31 36 33 36 38 35 32 32 26 19 21 23 21 20 17 16 15 12 12 12 12 11
5 3 5 2 3 3 5 6 2 3 3 4 4 5 6 6 10 7 8 17 18 22 26 29 29 32 36 37 34 33 26 18 18 23 19 19 18 16 15 14 12 10 10 10
2 3 7 2 6 9 0 1 6 5 4 5 3 7 9 10 9 9 11 23 19 22 25 25 27 27 30 38 37 33 28 23 20 20 19 17 14 15 14 12 10 9 9 9
1 4 5 12 3 3 6 10 6 5 4 2 3 6 5 11 5 7 18 25 22 17 23 27 26 27 29 36 39 34 30 25 22 20 18 15 15 16 14 13 11 9 8 9
1 2 4 10 6 3 5 6 6 5 4 7 6 6 2 5 7 11 17 23 23 20 19 23 26 29 30 35 37 34 30 26 23 20 18 16 15 15 14 12 11 8 7 6
4 3 5 4 9 4 6 4 5 6 5 5 6 7 12 8 9 6 14 20 23 26 26 28 30 32 33 38 40 37 33 28 25 21 20 17 18 14 13 11 9 7 5 4
4 2 2 8 9 5 5 3 5 8 6 7 5 8 9 9 10 8 11 18 21 27 29 33 35 35 36 40 41 39 34 31 26 22 22 18 16 16 13 10 7 4 5 5
3 3 2 6 5 7 5 7 6 6 1 6 4 6 5 15 17 10 15 24 28 33 32 34 37 36 37 41 43 39 35 30 25 20 20 18 18 17 13 9 6 5 7 8
2 2 2 4 4 9 4 4 2 4 4 4 3 4 8 11 13 13 15 24 34 30 29 31 34 35 38 42 42 40 31 15 18 20 19 18 19 16 12 9 7 9 10 10
4 4 3 4 6 3 4 6 3 9 6 1 4 7 9 15 28 28 18 22 32 28 30 31 34 36 40 44 44 38 25 20 17 23 21 22 21 17 13 10 10 13 13 13
8 3 3 4 5 6 2 4 4 3 1 1 7 9 13 22 19 6 9 17 24 29 30 32 34 38 43 45 43 36 29 26 25 31 28 25 23 17 13 12 14 15 15 16
5 3 3 2 5 6 5 5 5 3 1 4 5 8 11 19 5 5 15 17 16 23 30 34 35 38 43 47 45 37 31 32 30 34 30 26 22 16 13 13 15 16 15 17
3 2 4 3 4 5 3 10 6 3 5 8 12 15 14 4 8 29 28 18 14 23 29 34 35 37 44 48 45 36 34 36 33 32 27 24 20 16 13 15 17 18 19 19
3 2 3 3 3 5 9 2 3 3 3 8 13 18 22 27 29 22 13 10 15 23 28 31 31 37 45 45 41 38 37 32 32 29 27 24 21 18 17 18 19 21 21 19
3 5 3 7 5 4 10 9 12 8 11 13 19 18 22 27 25 18 8 4 11 18 22 23 28 34 37 41 39 29 26 27 33 29 26 24 21 19 18 21 22 22 20 17
3 4 3 2 3 5 8 13 11 12 17 19 19 18 16 22 19 14 8 6 9 12 19 24 24 27 36 37 19 22 30 33 31 27 24 23 20 20 20 21 21 22 21 19
4 5 3 5 7 10 9 8 9 14 24 17 17 16 10 16 17 13 9 9 11 18 20 21 19 18 21 21 27 33 33 34 29 27 24 23 19 19 22 22 21 22 20 16
8 7 5 6 9 2 10 12 19 22 19 18 24 16 10 15 15 14 14 13 13 16 16 20 19 21 16 36 31 32 33 28 27 26 23 22 20 21 20 20 21 22 19 16
Wind_Direction
38 89 185 220 173 150 173 237 253 233 183 155 238 264 202 202 202 206 212 217 224 229 235 232 233 231 224 221 223 228 232 224 223 216 210 214 203 206 254 292 285 271 290 312
41 202 226 235 147 177 181 231 277 263 168 169 171 250 231 200 212 205 210 221 224 236 236 239 236 236 234 232 229 229 230 221 219 217 215 230 211 197 215 298 300 274 293 308
157 230 157 141 164 177 192 181 224 241 72 63 162 278 209 231 222 220 219 224 229 230 236 239 237 234 228 228 230 231 232 225 218 215 205 219 210 201 187 264 266 262 271 295
214 233 191 165 202 157 267 193 206 208 110 252 359 280 215 240 226 219 224 220 226 233 233 242 240 231 225 221 218 220 222 222 220 217 215 222 231 226 237 207 246 259 269 282
240 170 174 172 206 182 228 227 231 200 164 100 340 60 273 182 252 226 223 218 223 231 234 234 234 235 226 222 220 222 220 221 220 225 223 223 232 230 219 231 244 254 258 272
233 266 194 210 169 198 183 71 45 53 92 356 219 161 285 229 223 246 222 222 216 222 230 235 235 232 225 225 220 221 230 225 222 222 225 232 242 253 230 239 237 256 262 272
323 259 252 186 160 306 76 63 343 359 24 219 29 117 237 286 245 235 202 224 216 218 220 226 225 223 222 222 220 215 224 224 221 221 220 231 239 240 237 233 247 251 266 276
152 313 182 191 173 186 182 156 157 215 198 251 345 221 252 254 283 287 254 243 224 212 213 221 224 223 223 219 219 212 217 213 216 215 221 228 238 235 236 249 250 250 265 274
169 276 293 218 152 133 188 166 180 115 24 110 222 285 297 271 283 263 201 211 216 216 216 219 220 222 220 216 214 210 210 209 212 214 216 225 236 240 248 243 238 251 263 267
237 268 203 294 88 13 152 167 74 8 177 240 274 279 240 279 277 238 205 215 208 209 205 209 217 219 218 215 209 209 212 219 220 211 219 217 221 230 238 235 238 237 246 262
142 128 282 122 180 187 106 304 47 124 138 176 230 260 216 233 242 232 221 217 215 201 206 212 214 218 219 212 207 208 212 218 212 204 209 207 225 228 229 227 226 238 257 274
244 158 242 230 285 227 173 190 149 128 240 224 177 271 200 229 240 244 250 226 214 226 215 217 218 215 215 210 205 208 206 209 200 201 203 202 222 223 219 228 230 235 248 265
301 349 344 343 358 355 200 186 140 122 89 200 152 264 113 260 257 243 245 233 216 212 209 208 206 210 210 205 201 198 197 197 194 198 202 201 209 205 209 214 216 232 249 254
141 123 142 194 238 222 289 199 153 135 131 178 219 258 284 302 272 243 233 221 205 203 208 208 203 204 207 203 198 196 197 197 196 199 203 200 199 198 196 208 221 229 224 199
79 194 206 241 258 243 250 249 178 180 196 161 226 201 269 302 284 283 249 223 192 195 203 207 203 201 203 199 196 197 198 194 196 199 194 201 200 198 198 207 219 221 191 176
349 260 57 307 330 3 289 300 253 277 217 283 204 256 206 299 308 267 231 199 210 203 206 204 202 199 200 197 194 196 191 191 191 195 197 201 200 197 197 206 215 198 180 164
259 166 46 268 348 320 336 304 236 98 12 317 218 275 334 326 316 288 268 215 213 212 201 198 201 200 197 193 193 185 183 170 204 200 202 209 204 198 200 207 206 187 174 162
219 162 157 241 14 276 247 340 173 138 187 223 295 303 303 295 299 294 272 247 228 220 202 200 200 196 195 192 188 188 162 174 205 213 218 213 203 202 206 210 197 187 176 165
202 134 172 184 171 285 110 316 305 211 182 85 331 320 319 318 315 334 335 265 248 226 220 213 204 198 193 192 188 186 171 179 199 202 209 211 206 206 215 206 193 186 180 170
83 78 149 103 176 188 215 276 271 272 301 336 360 329 333 338 8 271 339 343 252 238 228 213 203 198 195 192 188 183 183 188 199 198 198 204 207 214 218 208 193 185 176 173
335 347 187 197 263 282 235 299 91 230 224 335 360 347 337 320 273 298 301 295 265 242 222 210 203 198 198 193 187 188 195 196 195 186 189 198 210 212 208 201 190 183 175 175
195 209 219 125 263 240 353 27 185 268 326 330 356 2 341 332 332 328 319 283 231 211 203 205 197 200 201 191 188 196 196 193 186 187 188 190 199 199 198 195 189 183 188 189
254 191 215 180 213 255 304 307 308 311 314 325 323 343 348 339 335 329 309 239 199 200 203 202 207 206 192 191 194 201 204 193 185 188 191 193 192 196 194 194 191 187 192 193
247 172 197 346 234 248 302 304 290 302 317 316 307 317 330 329 320 305 268 212 196 193 188 194 202 200 194 190 186 219 211 195 187 186 193 197 194 189 191 193 196 196 193 190
222 149 212 264 293 286 265 310 310 328 332 331 335 308 308 312 297 276 239 199 184 182 194 196 197 191 196 197 209 203 207 194 189 190 190 195 194 197 192 195 198 195 192 198
197 203 176 226 236 217 281 313 318 322 318 344 340 340 329 306 278 265 230 217 205 196 194 160 153 165 207 220 210 206 195 194 198 190 193 194 196 192 192 197 196 196 198 207